Regional Weather Roundup
Issued by NWS Wakefield, VA

Home | Current Version | Previous Version | Text Only | Print | Product List | Glossary Off
Versions: 1 2 3 4 5 6 7 8 9 10 11 12 13 14 15 16 17 18 19 20 21 22 23 24 25 26 27 28 29 30 31 32 33 34 35 36 37 38 39 40 41 42 43 44 45 46 47 48

431
ASUS41 KAKQ 131715
RWRAKQ

REGIONAL WEATHER ROUNDUP
NATIONAL WEATHER SERVICE WAKEFIELD VA
1200 PM EST SAT FEB 13 2016

Note: "fair" indicates few or no clouds below 12,000 feet with no
significant weather and/or obstructions to visibility. * = Denotes
station may not report precipitation (e.g., rain,snow,etc.),
thunder or fog.

VAZ042-051-052>054-056-131800-
NORTHERN VIRGINIA

CITY           SKY/WX    TMP DP  RH WIND       PRES   REMARKS
WASH NATIONAL  FAIR      22  -4  32 NW23G32   30.30R WCI   6
DULLES         PTSUNNY   19  -3  38 NW25G39   30.28R WCI   1
FORT BELVOIR   FAIR      22  -4  31 NW22G29   30.30R WCI   7
QUANTICO       PTSUNNY   25   1  35 N22G29    30.31R WCI  10
FREDERICKSBRG* FAIR      24  -1  33 NW21G33   30.27F WCI  10
STAFFORD*      PTSUNNY   25  -2  31 NW21G26   30.32S WCI  10
WARRENTON      FAIR      24   4  42 NW16G29   30.28S WCI  10
CULPEPER*      FAIR      23  -4  30 NW14G22   30.30R WCI  11
MANASSAS*      MOSUNNY   23   0  36 NW23G35   30.32R WCI   7
LEESBURG*      CLOUDY    23   5  46 W20G29    30.29S WCI   8
WINCHESTER     PTSUNNY   19   0  42 NW21      30.27R WCI   3
FRONT ROYAL*   FAIR      18  -4  38 NW15G24   30.26R WCI   3
LURAY*         FAIR      19  -4  35 N15G25    30.26R WCI   5
$$

VAZ048-049-060>072-079>083-131800-
CENTRAL AND SOUTH CENTRAL VIRGINIA

CITY           SKY/WX    TMP DP  RH WIND       PRES   REMARKS
RICHMOND       FAIR      28  -3  26 NW22      30.27S WCI  14
CHESTERFIELD*  FAIR      28  -4  24 NW17G28   30.29R WCI  16
PETERSBURG*    FAIR      31 -17  12 W17G28    30.29S WCI  19
HANOVER        FAIR      28  -4  25 NW17G28   30.29S WCI  16
TAPPAHANNOCK*  FAIR      28   0  30 NW12G22   30.26S WCI  17
QUINTON*       FAIR      28  -3  26 NW13G18   30.26S WCI  17
CHARLOTTSVILLE PTSUNNY   22  -5  30 NW12G20   30.27R WCI  10
GORDONSVILLE*  FAIR      24  -5  28 NW10G20   30.27S WCI  14
ORANGE*        FAIR      27   0  31 W12       30.28S WCI  16
LOUISA*        FAIR      27  -2  28 NW9G24    30.25F
BUMPASS*       PTSUNNY   26  -4  27 W9G17     30.27S
FARMVILLE*     CLOUDY    28  -5  23 W9G18     30.27F
CREWE*         PTSUNNY   28  -2  27 NW12      30.27S WCI  18
FORT PICKETT*  FAIR      30  -3  23 W9G18     30.27S
CHASE CITY*    FAIR      28  -6  22 W7G18     30.29S
CLARKSVILLE*   FAIR      28  -2  26 NW10G20   30.31S WCI  19
SOUTH HILL*    FAIR      29  -1  27 NW12G18   30.34S WCI  20
LAWRENCEVILLE* FAIR      29  -4  24 N14G21    30.27F WCI  18
EMPORIA*       FAIR      30   0  27 SW8G16    30.29F
$$

VAZ088>098-131800-
SOUTHEAST VIRGINIA

CITY           SKY/WX    TMP DP  RH WIND       PRES   REMARKS
NORFOLK        FAIR      30   0  27 NW15G22   30.25R WCI  19
VIRGINIA BEACH FAIR      32   7  35 NW22G29   30.24R WCI  19
NORFOLK NAVAL  FAIR      32   4  30 NW17G28   30.26S WCI  21
WEST POINT*    FAIR      29  -3  25 W14       30.28R WCI  18
SALUDA*        FAIR      28   2  32 NW12G30   30.24S WCI  17
NEWPORT NEWS   FAIR      30   4  33 NW15G26   30.25S WCI  19
LANGLEY AFB    FAIR      29   2  31 NW12      30.23S WCI  19
FORT EUSTIS    FAIR      30   3  31 W14G25    30.24S WCI  20
WILLIAMSBURG*  FAIR      34   5  29 NW10G17   30.26S
HR EXEC AP*    FAIR      32   7  34 NW13G20   30.27S WCI  22
FRANKLIN*      FAIR      30  -5  22 NW12G22   30.28S WCI  20
US460-WAKEFLD  FAIR      30  -1  26 W13G22    30.27S WCI  20
$$

VAZ020-022-025-037-045-131800-
WEST CENTRAL AND SOUTHWEST VIRGINIA

CITY           SKY/WX    TMP DP  RH WIND       PRES   REMARKS
STAUNTON*      PTSUNNY   24  -6  26 NW7G20    30.26S
WAYNESBORO*    FAIR      20 -11  25 NW13G28   30.21S WCI   7
HOT SPRINGS VA PTSUNNY    6  -5  58 W23G33    30.00R WCI -15
LYNCHBURG      FAIR      24  -4  29 NW9G16    30.29S
DANVILLE       FAIR      30  -1  26 NW12G24   30.32S WCI  20
SOUTH BOSTON*  FAIR      29  -4  24 NW21G28   30.32S WCI  15
MARTINSVILLE   FAIR      24  -3  30 N20       30.33F WCI   9
ROANOKE        FAIR      22  -4  32 W23G35    30.31S WCI   6
BLACKSBURG     PTSUNNY   18   2  50 NW18G30   30.27R WCI   2
DUBLIN*        CLOUDY    18   1  47 NW16G25   30.26R WCI   3
MARION*        PTSUNNY   16   1  51 W18G28    30.25R WCI  -1
HILLSVILLE*    FAIR      14  -1  50 NW17G32   30.18R WCI  -3
RICHLANDS*     PTSUNNY   13  -1  54 NW12G21   30.27S WCI  -1
WISE*          FAIR      18  -4  38 NW10G20   30.30F WCI   6
ABINGDON*      CLOUDY    20   1  42 N12G23    30.33S WCI   8
$$

MDZ021>025-VAZ099-100-131800-
SOUTHERN MARYLAND AND THE DELMARVA PENINSULA

CITY           SKY/WX    TMP DP  RH WIND       PRES   REMARKS
PATUXENT RIVER PTSUNNY   26  -3  28 NW24G36   30.24S WCI  11
BAY BRIDGE APT   N/A     23  -2  33 W21G28    30.24S WCI   8
LEONARDTOWN    SUNNY     25  -4  28 W18G32    30.25  WCI  11
DOVER          SUNNY     23   0  37 W26G33    30.16R WCI   6
GEORGETOWN     FLURRIES  24  -2  32 NW24G36   30.18R WCI   8
EASTON         MOSUNNY   25  -2  30 NW23G31   30.26R WCI  10
CAMBRIDGE      MOSUNNY   23  -2  33 NW23G31   30.23S WCI   7
SALISBURY      PTSUNNY   25   1  35 NW17G36   30.19R WCI  12
OCEAN CITY     PTSUNNY   26   3  37 W22G36    30.16F WCI  12
WALLOPS ISLAND PTSUNNY   26   7  44 NW23G31   30.19F WCI  11
ACCOMACK*      CLOUDY    28   3  34 NW29      30.22S WCI  13
$$

NCZ012>017-030>032-131800-
NORTH CENTRAL AND EASTERN NORTH CAROLINA

CITY           SKY/WX    TMP DP  RH WIND       PRES   REMARKS
ROANOKE RAPIDS FAIR      32   0  25 NW20G25   30.29S WCI  20
RALEIGH        MOSUNNY   32   0  25 NW9G20    30.32R
ELIZABETH CITY SUNNY     30   8  39 NW22G28   30.25R WCI  17
AHOSKIE*       SUNNY     31  -1  25 NW8       30.28S
EDENTON*       SUNNY     34   8  34 N22       30.25F WCI  22
CURRITUCK*     NOT AVBL
KILL DEVIL HLS NOT AVBL
MANTEO         NOT AVBL
CAPE HATTERAS  PTSUNNY   34  19  54 N9        30.24R
TARBORO*       FAIR      33   4  28 W13G25    30.31S WCI  24
GOLDSBORO      SUNNY     32   5  32 NW15G21   30.28S WCI  22
WASHINGTON     SUNNY     32   7  35 NW13G18   30.27S WCI  22
GREENVILLE     SUNNY     32   5  32 NW12G22   30.29S WCI  23
NEW BERN       MOSUNNY   34  10  37 NW17G28   30.29R WCI  23
WILMINGTON     SUNNY     41  18  39 NW18      30.27R
$$

VAZ048-131800-
ELSEWHERE

CITY           SKY/WX    TMP DP  RH WIND       PRES   REMARKS
HARRISBURG PA  FLURRIES  16   0  49 NW24G32   30.21R WCI  -2
BALTIMORE      PTSUNNY   20  -7  30 NW14G36   30.24R WCI   7
ANNAPOLIS      MOSUNNY   22  -2  35 W14G23    30.25R WCI   9
ANDREWS AFB    FAIR      21  -2  37 NW18G31   30.24R WCI   6
PHILADELPHIA   PTSUNNY   22   1  40 W22G35    30.16S WCI   6
HENDERSON NC   SUNNY     29  -5  22 NW12G20   30.30S WCI  20
GREENSBORO     MOSUNNY   28  -4  25 NW18G25   30.30R WCI  15
ROCKY MOUNT    SUNNY     32   2  27 NW17G26   30.31S WCI  21
$$

VAZ100-131800-
MARINE

STATION/POSITION TIME  TEMP    WIND        PRES    WAVE   SWELL
                       AIR SEA DIR/SP/G            HT/PER HT/PER
                 (UTC) (F)     (DEG/KT/KT) (MB)    (FT/S) (FT/S)
BRANDYWINE LGT   1600   22     310/ 20/ 29 1020.8R
CAPE MAY NJ      1600   23 36  320/ 23/ 31 1020.6R
LEWES DE         1600   24 37  310/ 30/ 35 1021.1R
15NM E FENWICK I 1650   26 43              1020.2R   6/ 6
OCEAN-CITY-INLET 1600   25 40  340/ 21/ 26 1020.7R
WACHAPREAGUE VA  1600   27 34  330/  8/ 16 1023.0R
THOMAS POINT MD  1700   20 36  300/ 25/ 28 1024.5R
GOOSES REEF MD   1700   23 37  300/ 21/ 29 1025.1R   3/ 4
COVE POINT MD    1600   20     340/ 24/ 31 1024.5R
SOLOMONS ISLAND  1600   23 38  320/ 17/ 23   N/A
BISHOPS HEAD MD  1600   23 30  300/ 25/ 29 1022.7R
PINEY POINT MD   1600          330/ 30/ 33   N/A
POTOMAC MD       1700   25 38  310/ 25/ 31 1022.8R   3/ 3
CAMBRIDGE MD     1600   22 35  300/ 22/ 32 1022.9R
LEWISETTA VA     1600   24 35  340/ 15/ 20 1024.3R
RAPPAHANNOCK LGT 1600          320/ 24/ 27 1023.5R
STINGRAY PT      1700   27 39  320/ 19/ 25 1023.9R   3/ 3
YORK RVR RNG VA  1600   26     320/ 22/ 27 1023.5R
YORKTOWN VA      1600   27 40  320/ 18/ 25 1024.1R
JAMESTOWN VA     1700   27 40  300/ 17/ 25   N/A     1
DOMINION TERM VA 1600   27     340/ 13/ 18 1024.4R
KIPTOPEKE VA     1600      37  320/ 21/ 28   N/A
CHES BAY BRIDGE  1600   27 40  300/ 18/ 27 1023.8R
CAPE HENRY VA    1600   26     310/ 23/ 28   N/A
CHESAPEAKE LGHT  1600   27     320/ 22/ 25 1024.1R
WILLOUBY STN VA  1600   26     300/ 22/ 24 1024.8R
CAPE HENRY BUOY  1628      43                N/A     6/ 5
1ST LANDING BUOY 1700      40                N/A     3/ 3
CAPE CHARLES BUO 1626      42                N/A     4/ 4   2/11
OFFSHORE WE BUOY 1621      45                N/A     8/ 6   2/10
64NM E OF VA BCH 1650   30 48  320/ 25/ 33 1021.5R  10/ 8
DUCK PIER NC     1600   28     330/ 22/ 26 1022.6R
44100 DUCK FRF   1624      46                N/A     8/ 7   2/11
44056 DUCK FRF   1611      42                N/A     5/ 6
OREGON INLET NC  1600   30 37  320/ 20/ 24 1023.4R
HATTERAS NC      1600   31 43  340/ 20/ 22 1023.2R
DIAMOND SHLS NC  1650   34 71  350/ 21/ 29 1023.2R   6/ 8
$$




USA.gov is the U.S. government's official web portal to all federal, state and local government web resources and services.